sat.trackr.live / text

‹ back to catalog

STARLINK-30549

NORAD 58030 · 2023-156C

PAYLOAD ACTIVE UNKNOWN

§ Identity

Operator
Country
US
Launch date
2023-10-09
Launch site
AFWTR
Launch vehicle
Mass (kg)
RCS (m²)

Purposes: comms

External: N2YO · Heavens-Above · Gunter

§ Orbital elements

Epoch: 2026-09-20T22:51:27.537984Z

Period
93.85 min
Inclination
53.1569°
Eccentricity
0.0001814
Mean motion
15.34383398 rev/d
Perigee alt
461.5 km
Apogee alt
464.0 km
Semi-major
6,840.9 km
B*
5.9093e-6
RAAN
249.6609°
Arg perigee
79.3774°
Mean anomaly
280.7433°
Rev number
16,618

§ Raw data

STARLINK-305491 58030U 23156C   26263.95240206 -.00000177  00000+0  59093-5 0  99962 58030  53.1569 249.6609 0001814  79.3774 280.7433 15.34383398166180

JSON: /api/v1/satellites/58030 · /tle

For live sub-satellite position, see the globe view (requires WebGL).

§ Visibility from observer

Set your observer location to see the next 7 days of passes ≥ 10°. The values pass through the URL so the page stays shareable.

No JS? Fill the form by hand. The geolocation button needs JavaScript.